Regional Weather Roundup
Issued by NWS Midland/Odessa, TX

Skip options and go directly to product.
Home | Oldest Version | Previous Version | Current Version | All | Text Only | Save Text | Print | Product List | Glossary Off

Skip product version selection by date and time.   

593
ASUS44 KMAF 010010
RWRMAF
MIDLAND AREA WEATHER ROUNDUP
NATIONAL WEATHER SERVICE MIDLAND TX
700 PM CDT FRI OCT 31 2014

...IN SOUTHWEST TEXAS AND SOUTHEAST NEW MEXICO...

CITY           SKY/WX    TMP DP  RH WIND       PRES   REMARKS
ALPINE         CLEAR     64  38  38 SE9       30.36S
ANDREWS        FAIR      60  33  36 E7        30.33S
ARTESIA        NOT AVBL
BIG SPRING     CLEAR     62  31  31 NE6       30.35R
CARLSBAD       MOCLDY    65  34  31 SE9       30.27F
DRYDEN           N/A     73  31  21 E9        30.25S
FORT STOCKTON  CLEAR     68  29  23 E9        30.28S
GUAD PASS      CLEAR     55  33  43 NE26      30.32F
HOBBS          CLEAR     59  32  36 E8        30.33S
MARFA          CLEAR     63  39  42 E13       30.33S
MIDLAND AIRPK  CLEAR     65  32  29 E8        30.33S
MIDLAND INTL   CLEAR     65  32  29 E13       30.31S
ODESSA         CLEAR     64  29  26 E9        30.32S
PECOS          CLEAR     68  32  26 E10       30.26F
PRESIDIO       FAIR      75  44  33 NE15G24   30.18S
SEMINOLE       CLEAR     59  33  37 SE7       30.34S
SNYDER         CLEAR     59  33  37 E7        30.34F
WINK           PTCLDY    68  29  23 E8        30.27S
$$
...OTHER STATIONS IN TEXAS...

CITY           SKY/WX    TMP DP  RH WIND       PRES   REMARKS
ABILENE        CLEAR     62  31  31 NE7       30.33S
AMARILLO       CLEAR     55  30  38 SE9       30.35R
AUSTIN         PTCLDY    66  41  40 N12       30.24R
BROWNSVILLE    CLEAR     74  61  63 N5        30.16R
CORPUS CHRISTI PTCLDY    71  52  50 N8        30.17R
DALLAS FTW     PTCLDY    58  38  47 N10       30.31R
DEL RIO        CLEAR     76  41  28 CALM      30.21S
EL PASO        PTCLDY    72  47  40 SE17G25   30.17S
HOUSTON INT    PTCLDY    68  43  40 N10       30.19R
LUBBOCK        PTCLDY    57  31  37 SE9       30.33F
SAN ANGELO     CLEAR     66  31  27 NE9       30.30S
SAN ANTONIO    PTCLDY    72  36  26 N10       30.23R
WACO           CLEAR     61  40  45 N9        30.28R
WICHITA FALLS  NOT AVBL
$$
...OTHER LOCATIONS IN NEW MEXICO...

CITY           SKY/WX    TMP DP  RH WIND       PRES   REMARKS
ALAMAGORDO     NOT AVBL
ALBUQUERQUE    PTCLDY    67  34  29 S17       30.21F
CANNON AFB     CLEAR     56  32  40 SE9       30.33S
CLOVIS         CLEAR     55  30  38 SE9       30.36R
HOLLOMAN AFB   PTCLDY    68  39  34 S20       30.19S
ROSWELL        CLEAR     63  34  33 S8        30.29F
RUIDOSO        PTCLDY    50  30  46 SE12      30.37F
SANTA FE       PTCLDY    60  27  28 SE16      30.27F
TRUTH OR CONSE PTCLDY    68  38  33 S9        30.20F
TUCUMCARI      CLEAR     61  29  29 S10       30.28F
$$

USA.gov is the U.S. government's official web portal to all federal, state and local government web resources and services.